Starlink 35153

operational
NORAD ID: 65625 Int'l Des: 2025-210 Owner: SPXS Country: US Constellation: starlink
NOTLE

About Starlink 35153

Description loading...

Live Position

Loading 3D Globe...

Upcoming Passes

Altitude History

Altitude vs Time

uPlot chart will show altitude changes over time

Two-Line Element Set

1 65625U 25210D 25339.29569612 .00072715 00000-0 24430-2 0 9993
2 65625 53.1594 25.1997 0001295 85.4124 274.7025 15.30203888 13208
Epoch: Dec 5, 2025 • Age: 16 hours

Current Status

Altitude 477.0 km
Velocity 7.63 km/s
Sub-Earth Point 35.91°N, 104.14°E
Launch Date Sep 18, 2025
Age 0.2 years
Type internet

Technical Details

Classification Payload
Mass 575.00 kg
Dry Mass 530.00 kg
Total Mass 575.00 kg
Length 0.30 m
Diameter 4.10 m
Span 29.00 m
Shape Box + pan
Manufacturer SPXS
Bus Type Starlink V2MO
Phase Status In Orbit
Owner/State SPXS/US

Large Constellations

Loading constellations...